Vorticity
nan nan nan nan nan nan nan nan nan nan nan nan nan nan nan nan nan nan nan nan nan nan
nan 7 8 8 10 10 11 14 18 14 7 6 6 5 5 8 9 8 9 10 9 nan
nan 6 7 8 8 10 12 17 15 8 4 3 4 7 9 9 9 9 9 9 9 nan
nan 7 8 7 8 10 12 16 14 6 2 6 10 9 10 8 9 9 9 9 8 nan
nan 7 8 8 8 9 11 10 9 9 9 8 9 12 10 10 10 9 9 9 7 nan
nan 8 7 8 10 11 10 8 7 10 10 10 11 11 10 11 11 10 8 8 8 nan
nan 8 8 9 10 11 10 11 10 9 12 12 12 13 13 10 9 9 8 8 8 nan
nan 8 8 8 10 11 10 9 10 11 12 14 14 12 13 11 9 9 10 11 10 nan
nan 7 7 8 9 9 11 10 9 11 13 12 9 9 12 11 11 10 11 10 10 nan
nan 7 7 8 10 11 10 10 11 14 11 8 8 8 7 9 9 9 9 10 11 nan
nan 8 7 8 11 11 11 12 15 14 11 7 5 7 6 7 10 9 9 10 10 nan
nan 10 8 8 10 11 12 14 16 13 10 8 5 6 8 10 11 9 10 10 9 nan
nan 12 8 9 11 12 12 14 15 11 8 7 6 6 7 11 10 9 10 10 10 nan
nan nan nan nan nan nan nan nan nan nan nan nan nan nan nan nan nan nan nan nan nan nan
CAPE
0 0 0 0 0 0 0 0 0 0 0 0 0 0 0 0 0 0 0 0 3 3
0 0 0 0 0 0 0 0 0 0 0 0 0 0 0 0 1 0 8 13 24 20
0 0 0 0 0 0 0 0 0 0 0 1 1 0 0 1 4 9 27 20 26 2
0 0 0 0 0 0 0 0 0 0 1 4 0 0 5 3 0 2 25 7 0 0
0 0 0 0 0 0 0 0 0 0 0 4 0 0 0 0 0 1 0 0 0 0
0 0 0 0 0 0 0 0 0 0 1 0 0 0 0 0 0 0 0 0 0 0
0 0 0 0 0 0 0 0 0 1 0 0 0 0 0 0 0 0 0 0 0 0
0 0 0 0 0 0 0 0 1 0 0 0 0 0 0 0 0 0 0 0 0 1
0 0 0 0 0 0 0 4 0 0 0 0 0 0 0 0 0 0 0 0 0 0
0 0 0 0 0 0 0 3 2 0 0 0 0 0 0 0 0 0 0 0 0 0
0 0 0 0 0 0 0 0 0 0 0 0 0 0 0 0 0 0 0 0 0 1
0 0 0 0 0 0 0 0 0 0 0 0 0 0 0 0 0 0 0 0 2 3
0 0 0 0 0 0 0 0 0 0 0 0 0 0 0 0 0 1 1 1 1 0
0 0 0 0 0 0 0 0 0 0 0 0 0 0 0 0 1 3 3 0 0 3